www.pogodaiklimat.ru

Погода и климат >> Архив погоды >> Мексика >> Choix


ПОГОДА в Choix

  • Прогноз погоды в Choix
  • Монитор погоды в Choix
  • Климат города

АРХИВ ПОГОДЫ в Choix

Время (UTC), дата Ветер
(напр.,м/с)
 
Видим.   Явления Облачность Т
(С)
Тd
(С)
f
(%)
Тe
(С)
Тes
(С)
Комфортность P
(гПа)
Po
(гПа)
Тmin
(С)
Tmax
(С)
R
(мм)
R24
(мм)
S
(см)
06 8.08 штиль 0 2000 м 5/5 750 м
[Sc diur, vesp]
1011.6 985.3
09 8.08 штиль 0 2000 м 6/6 750 м
[Sc]
1010.7 983.7
15 8.08 штиль 0 30 км 5/5 750 м
[Sc diur, vesp]
1011.7 984.7
21 8.08 С 1 30 км 1/1 600 м
[Cu med, cong]
1008.6 982.6
00 9.08 штиль 0 30 км {дождь} 10/10 600 м
[Frnb]
1010.8 984.7 18
03 9.08 штиль 0 2000 м {морось} 10/10 600 м
[Frnb]
1012.5 985.4 5
06 9.08 штиль 0 2000 м {морось} 10/10 600 м
[Frnb]
1012.9 986.7 5
09 9.08 штиль 0 2000 м ясно 1012.2 985.3
12 9.08 штиль 0 2000 м ясно 1012.1 985.2
15 9.08 штиль 0 30 км 5/5 750 м
[Sc diur, vesp]
1013.9 986.9
18 9.08 СЗ 3 30 км 1/1 600 м
[Cu med, cong]
1013.5 986.5
21 9.08 СЗ 4 30 км 1/1 600 м
[Cu med, cong]
1011.3 984.8
00 10.08 СЗ 2 30 км 5/5 600 м
[Sc diur, vesp]
1009.9 983.4
03 10.08 СЗ 1 2000 м 5/5 750 м
[Sc diur, vesp]
1010.9 984.4
09 10.08 СЗ 2 2000 м 3/3 750 м
[Sc diur, vesp]
1013.2 986.1
12 10.08 штиль 0 2000 м ясно 1011.7 984.7
15 10.08 СЗ 1 30 км 1/1 600 м
[Cu med, cong]
1012.2 985.1
18 10.08 СЗ 2 30 км 5/5 750 м
[Sc diur, vesp]
1011.6 985.5
21 10.08 штиль 0 30 км ясно 1009.7 983.3
03 11.08 штиль 0 2000 м {морось} 10/10
[Frnb]
1012.6 986.2 3
06 11.08 штиль 0 2000 м {морось} 10/10 600 м
[Frnb]
1013.5 987.1 8
09 11.08 штиль 0 2000 м {морось} 10/10 600 м
[Frnb]
1011.6 984.6 0.5
12 11.08 штиль 0 2000 м ясно 1012.5 985.5
18 11.08 штиль 0 30 км 8/8 750 м
[Sc diur, vesp]
1013.1 986.0
21 11.08 штиль 0 30 км 3/3 600 м
[Cu med, cong]
1010.9 984.3
00 12.08 штиль 0 30 км 4/4 300 м
[Cu med, cong]
1009.3 982.8
03 12.08 штиль 0 2000 м 4/4 750 м
[Sc diur, vesp]
1009.7 983.2
06 12.08 штиль 0 2000 м 4/4 750 м
[Sc diur, vesp]
1011.3 984.7
09 12.08 штиль 0 2000 м ясно 1011.5 984.5
12 12.08 штиль 0 2000 м 3/3 750 м
[Sc diur, vesp]
1011.5 984.5
15 12.08 штиль 0 30 км 3/3 750 м
[Sc diur, vesp]
1013.0 985.9
18 12.08 штиль 0 30 км 5/5 600 м
[Cu med, cong]
1013.0 985.9
21 12.08 СЗ 1 30 км в посл. час морось 10/10 600 м
[Frnb]
1013.2 986.7 2
00 13.08 СЗ 1 30 км слабая морось 10/10 300 м
[Frnb]
1012.4 985.9 5
03 13.08 штиль 0 2000 м слабая морось 10/10 750 м
[Sc diur, vesp]
1012.4 985.9 1
06 13.08 штиль 0 2000 м в посл. час морось ясно 1012.0 985.5 1
09 13.08 штиль 0 2000 м ясно 1013.2 986.2
12 13.08 штиль 0 2000 м ясно 1012.7 985.7
15 13.08 штиль 0 30 км 4/4 750 м
[Sc]
1014.1 987.0
21 13.08 СЗ 1 30 км 4/4 600 м
[Cu med, cong]
1010.7 984.3
00 14.08 СЗ 1 30 км 8/8 800 м
[Sc]
1009.4 983.1
03 14.08 СЗ 1 2000 м 4/4 750 м
[Sc]
1010.3 983.9
06 14.08 штиль 0 2000 м ясно 1010.9 984.5
09 14.08 штиль 0 2000 м ясно 1012.0 985.1
12 14.08 штиль 0 2000 м ясно 1010.1 983.3
15 14.08 штиль 0 30 км ясно 1011.3 984.4
00 15.08 штиль 0 30 км 6/6 600 м
[Cu med, cong]
1006.0 980.8
03 15.08 СЗ 1 2000 м 8/8 600 м
[Frnb]
1008.5 982.2

 

Местоположение метеостанции Choix (Мексика): широта 26.73 долгота -108.20 высота над уровнем моря 238 м.

В архиве по умолчанию представлена погода в Choix за последнюю неделю. Архивные данные за месяц целиком и за предыдущие месяцы, начиная с января 2011 года, Вы можете получить, выбрав интересующий диапазон дат из раскрывающегося списка и нажав кнопку "Ввод!".


*Определитесь, кто Вы:
робот инопланетянин человек

Внимание! Время в таблицах - всемирное. Для получения местного времени необходимо прибавить поправку, которая в Choix равна -6 ч.

Смотрите также архив погоды в соседних городах и на ближайших метеорологических станциях:

Погода в Ciudad Obregon (Мексика) (177 км)
Погода в Culiacan (Мексика) (229 км)
Погода в Temosachic (Мексика) (250 км)
Погода в Hidalgo del Parral (Мексика) (259 км)
Погода в Empalme (Мексика) (282 км)
Погода в Tepehuanes (Мексика) (292 км)
Погода в Guaymas (Мексика) (296 км)
Погода в Chihuahua (Мексика) (303 км)
Погода в Chihuahua University (Мексика) (303 км)
Погода в Loreto (Мексика) (319 км)

Пояснения к столбцам:

Ветер - указаны скорость ветра в м/с - средняя за 10 мин, порывы в срок и между сроками (в фигурных скобках) и направление, откуда дует ветер: С - северный, СВ - северо-восточный, В - восточный, ЮВ - юго-восточный, Ю - южный, ЮЗ - юго-западный, З - западный, СЗ - северо-западный.
Видимость - горизонтальная дальность видимости в метрах или километрах. При видимости от 1 до 10 км при отсутствии осадков обычно наблюдается дымка, при ухудшении видимости до 1 км и менее - туман. В сухую погоду видимость может ухудшаться дымом, пылью или мглою.
Явления - указаны атмосферные явления, наблюдавшиеся в срок или в последний час перед сроком; фигурными скобками обозначены явления, наблюдавшиеся между сроками (за 1-3 часа до срока); квадратными скобками обозначены град или гололедные отложения с указанием их диаметра в мм.
Облачность - указаны через наклонную черту общая и нижняя облачность в баллах и высота нижней границы облаков в метрах; квадратными скобками обозначены формы облаков: Ci - перистые, Cs - перисто-слоистые, Cc - перисто-кучевые, Ac - высококучевые, As - высокослоистые, Sc - слоисто-кучевые, Ns - слоисто-дождевые, Cu - кучевые, Cb - кучево-дождевые. Подробнее классификацию облаков см. в Атласе облаков (PDF).
T - Температура воздуха - температура, измеренная на высоте 2 м над землей.
Td - Температура точки росы - температура, при понижении до которой содержащийся в воздухе водяной пар достигнет насыщения.
f - Относительная влажность воздуха - влажноcть воздуха, измеренная на высоте 2 м над землей.
Te - Эффективная температура - температура, которую ощущает одетый по сезону человек в тени. Характеристика душности погоды. При расчете учитывается влияние влажности воздуха и скорости ветра на теплоощущения человека.
Tes - Эффективная температура на солнце - температура, которую ощущает человек, с поправкой на солнечный нагрев. Характеристика знойности погоды. Зависит от высоты солнца над горизонтом, облачности и скорости ветра. Ночью, в пасмурную погоду, а также при ветре 12 м/с и более поправка равна нулю.
P - Атмосферное давление - приведенное к уровню моря атмосферное давление.
Po - Атмосферное давление - измеренное на уровне метеостанции атмосферное давление.
Tmin - Минимальная температура - минимум температуры воздуха на высоте 2 м над землей.
Tmax - Максимальная температура - максимум температуры воздуха на высоте 2 м над землей.
R - Количество осадков - Количество выпавших осадков за период времени, мм. При наведении курсора мыши на число - период времени, за который выпало указанное количество осадков.
R24 - Количество осадков - Количество выпавших осадков за 24 часа, мм.
S - Снежный покров - Высота снежного покрова, см. При наведении курсора мыши на число - состояние снежного покрова и степень покрытия местности в баллах.